Starlink 6100

operational
NORAD ID: 57125 Int'l Des: 2023-090 Owner: SPXS Country: US Constellation: starlink
LEOCIRCULAR

关于 Starlink 6100

正在加载描述...

实时位置

正在加载3D地球...

即将过境

高度历史

Altitude vs Time

uPlot chart will show altitude changes over time

两行轨道根数

1 57125U 23090AA 26062.00361611 -.00000900 00000-0 -51570-4 0 9991
2 57125 43.0040 298.3003 0000880 253.7125 106.3621 15.02539602149364
Epoch: Mar 3, 2026 • Age: 12 hours

当前状态

高度 561.0 km
速度 7.58 km/s
星下点 -12.37°S, 145.82°E
发射日期 Jun 23, 2023
运行时间 2.6 years
类型 internet

技术详情

分类 Payload
质量 305.00 kg
干质量 290.00 kg
总质量 305.00 kg
长度 0.20 m
直径 2.80 m
跨度 9.00 m
形状 Box + pan
制造商 SPXS
平台类型 Starlink
阶段状态 In Orbit
所有者/国家 SPXS/US

大型星座

Loading constellations...